Погода в Авесте

Швеция     60°08′41″N   16°10′22″E
темп.,
°C
ветер,
м/с
пор.,
м/с
влажн.,
%
обл.,
%
осадки,
мм/ч
давл.,
гПа
погр.,
м
14 июня, пн
пн1423:00+12юз3115996 0.0 1015304
02:00+10ююз210677 0.0 1014221
05:00+11юз3128246 0.0 1012381
08:00+17юз51267100 0.0 1011658
11:00+21юз6105145 0.0 10101490
14:00+22зюз61251100 0.0 10081702
17:00+17ююз71777100 0.2 10051574
20:00+15юз8198970 2.4 10001619
15 июня, вт
вт1523:00+12з91777100 0.3 10021660
02:00+10з4106997 0.4 1004669
05:00+11зюз496971 0.0 1006557
08:00+14зюз355627 0.0 10071016
11:00+18з46385 0.1 10081832
14:00+20з4729100 0.1 10083140
17:00+21з462762 0.0 10092852
20:00+17св255098 0.0 1011371
16 июня, ср
ср1623:00+11всв4972100 0.0 1014451
02:00+8св2983100 0.0 1016277
05:00+8в288178 0.0 1017395
08:00+12вюв355578 0.0 1017743
11:00+17ю354929 0.0 10161357
14:00+21ююз45345 0.0 10151791
17:00+22юз463654 0.0 10141774
20:00+19юз484398 0.0 1015641
17 июня, чт
чт1723:00+14юз3106191 0.0 1017268
02:00+10юз297453 0.0 1018178
05:00+10ююз210824 0.0 1018254
08:00+17юз47604 0.0 1018650
11:00+22юз57370 0.0 10181321
14:00+25юз572728 0.0 10161839
17:00+26юз57243 0.0 10161970
20:00+23юз49510 0.0 10161198
18 июня, пт
пт1823:00+16ю257823 0.0 101795
02:00+14ююв268632 0.0 1016125
05:00+13ю28840 0.0 1016201
08:00+20ююз47581 0.0 1015500
11:00+26ю58475 0.0 10131230
14:00+29ююз6104186 0.0 10122635
17:00+28ююз4944100 0.0 10111955
20:00+19ссв489317 1.1 1015495